Regional Weather Roundup
Issued by NWS

Home | Current Version | Previous Version | Graphics & Text | Print | Product List | Glossary On
Versions: 1 2 3 4 5 6 7 8 9 10 11 12 13 14 15 16 17 18 19 20 21 22 23 24 25 26 27 28 29 30 31 32 33 34 35 36 37 38 39 40 41 42 43 44 45 46 47 48 49 50
000
ASUS43 KMKX 021000
RWRWI

WISCONSIN REGIONAL WEATHER ROUNDUP
NATIONAL WEATHER SERVICE MILWAUKEE/SULLIVAN WI
500 AM CDT SUN AUG 02 2015

NOTE: "FAIR" INDICATES FEW OR NO CLOUDS BELOW 12,000 FEET WITH NO
SIGNIFICANT WEATHER AND/OR OBSTRUCTIONS TO VISIBILITY.

WIZ001-002-006>008-014>016-023>028-021100-
NORTHWEST WISCONSIN

CITY           SKY/WX    TMP DP  RH WIND       PRES   REMARKS
SUPERIOR ARPT  CLOUDY    63  61  92 NW6       29.65F
ASHLAND        MOCLDY    65  63  93 SW3       29.65F
HAYWARD        CLOUDY    65  63  93 CALM      29.67F
SIREN          PTCLDY    71  63  75 NW7       29.67R
CUMBERLAND     CLEAR     64  63  94 S5        29.66F
RICE LAKE      CLEAR     66  62  87 S6        29.67F
CHETEK         CLEAR     69  65  88 S7        29.68F
LADYSMITH      CLEAR     65  63  92 S3        29.69F
EAU CLAIRE     NOT AVBL
MENOMONIE      CLEAR     69  65  85 S6        29.67F
NEW RICHMOND   CLEAR     68  65  91 S9        29.65F
OSCEOLA        CLEAR     70  64  82 S6        29.65F
$$

WIZ003>005-009-010-017-018-021100-
NORTH CENTRAL WISCONSIN

CITY           SKY/WX    TMP DP  RH WIND       PRES   REMARKS
MANITOWISH WTR PTCLDY    62  62 100 CALM      29.70F
ARBOR VITAE    PTCLDY    64  61  91 CALM      29.71S
WOODRUFF       PTCLDY    64  61  91 CALM      29.71S
RHINELANDER    PTCLDY    66  62  87 SW9       29.72F
EAGLE RIVER    PTCLDY    62  58  87 SW3       29.71F
LAND O LAKES   PTCLDY    55  55  98 CALM      29.72F
PHILLIPS       PTCLDY    64  63  97 SW5       29.69F
TOMAHAWK       PTCLDY    60  59  95 CALM      29.72F
MEDFORD        PTCLDY    66  64  94 SW7       29.72F THUNDER
MERRILL        NOT AVBL
$$

WIZ029-030-035-036-043>047-021100-
CENTRAL WISCONSIN

CITY           SKY/WX    TMP DP  RH WIND       PRES   REMARKS
WAUSAU         MOCLDY    65  64  97 SE5       29.72F
MOSINEE        MOCLDY    64  64 100 S7        29.75F THUNDER
MARSHFIELD     MOCLDY    65  61  87 SW6       29.74F
STEVENS POINT  LGT RAIN  65  62  91 S3        29.75F
WAUPACA        MOCLDY    67  64  89 S3        29.75F
WAUTOMA        NOT AVBL
WISC RAPIDS    LGT RAIN  70  65  84 S6        29.75F
CAMP DOUGLAS   CLOUDY    73  73 100 SW6       29.75F FOG
$$

WIZ011>013-019>022-031-037>040-048>050-021100-
NORTHEAST WISCONSIN

CITY           SKY/WX    TMP DP  RH WIND       PRES   REMARKS
ANTIGO         PTCLDY    61  60  96 S5        29.75F
SHAWANO        MOCLDY    66  61  84 CALM      29.74F
OCONTO         CLOUDY    66  66 100 SW8       29.70F
STURGEON BAY   CLOUDY    70  63  78 SW15G26   29.72F
GREEN BAY      CLOUDY    69  64  84 W5        29.74F
MANITOWOC      NOT AVBL
APPLETON       MOCLDY    70  61  73 SW8       29.76F
CLINTONVILLE   MOCLDY    64  61  88 CALM      29.74F
OSHKOSH        MOCLDY    66  62  87 S3        29.76F
$$

WIZ032>034-041-042-053>061-021100-
SOUTHWEST WISCONSIN

CITY           SKY/WX    TMP DP  RH WIND       PRES   REMARKS
LA CROSSE      PTCLDY    74  68  81 VRB7      29.73F
SPARTA         PTCLDY    71  67  88 S5        29.75F
VIROQUA        CLEAR     71  70  95 SW10G17   29.79F
BOSCOBEL       PTCLDY    71  68  90 SW3       29.78F
PRAIRIE DU CHI CLEAR     73  68  82 SW7       29.79S
PLATTEVILLE    CLEAR     69  69  97 SW5       29.83S
$$

WIZ056-057-062-063-064-067-068-021100-
SOUTH CENTRAL WISCONSIN

CITY           SKY/WX    TMP DP  RH WIND       PRES   REMARKS
REEDSBURG      PTCLDY    72  69  89 SW8       29.78F
BARABOO/DELLS  PTCLDY    72  66  81 SW8       29.78F
LONE ROCK      NOT AVBL
MINERAL POINT  PTCLDY    70  68  94 S8        29.82F
MADISON        PTCLDY    75  67  76 VRB3      29.79F
MIDDLETON      PTCLDY    74  67  79 SW10      29.80F
WATERTOWN      LGT RAIN  70  70 100 S6        29.81S
MONROE         CLEAR     70  68  94 SW9       29.83S
JANESVILLE     PTCLDY    70  68  94 S7        29.83S
$$

WIZ051-052-058>065-066-070>072-021100-
SOUTHEAST WISCONSIN

CITY           SKY/WX    TMP DP  RH WIND       PRES   REMARKS
MILWAUKEE      MOCLDY    72  65  78 SW10      29.81S
WAUKESHA       MOCLDY    68  64  88 SW8       29.83S
MILWAUKEE/TIMM PTCLDY    72  63  73 SW9       29.81F
RACINE         PTCLDY    71  65  81 SW7       29.84S
BURLINGTON     MOCLDY    69  66  90 SW7       29.83F
KENOSHA        MOCLDY    73  68  84 SW9       29.83F
FOND DU LAC    MOCLDY    68  65  90 S7        29.77F
SHEBOYGAN      CLOUDY    67  64  90 SW5       29.78F
WEST BEND      MOCLDY    72  64  78 SW10G16   29.79F
JUNEAU         PTCLDY    69  67  93 S9        29.80F
$$

LSZ147-162-021100-
LAKE SUPERIOR

STATION/POSITION TIME  TEMP    WIND        PRES    WAVE
                       AIR SEA DIR/SP/G            HT/PER
                 (UTC) (F)     (DEG/KT/KT) (MB)    (FT/S)
W MID LAKE BUOY  0850   60 55  230/ 10/ 12 1003.3F   1/ 3
DEVILS ISLAND    0900   63     260/ 13/ 15 1004.2R
PORT WING        0940   66      20/  2/ 18 1005.1R
SAXON HARBOR     0940   70                 1004.4R
$$

LMZ867-665-643>646-021100-
LAKE MICHIGAN

STATION/POSITION TIME  TEMP    WIND        PRES    WAVE
                       AIR SEA DIR/SP/G            HT/PER
                 (UTC) (F)     (DEG/KT/KT) (MB)    (FT/S)
CHAMBERS ISLAND  0900   71     180/  5/  9 1006.4F
S GREEN BAY BUOY 0800   71 69  190/ 12/ 14 1008.9F
N MID LAKE BUOY  0850   70 68  210/ 14/ 17 1006.1F   2/ 4
NORTHPORT PIER   0900   67     180/  3/  7 1006.4F
ALGOMA LAKESHORE 0927             CALM       N/A
KEWAUNEE LAKESHO 0900   69     230/  5/  6 1007.5F
SHEBOYGAN LAKESH 0900   71     250/ 10/ 11 1008.9S
PORT WASHINGTON  0900   73     270/  5/  9 1009.8F
ATWATER BUOY     0900   70 59  230/ 10/ 12 1010.7F
MILWAUKEE LAKESH 0900   72     230/  8/ 10   N/A
KENOSHA   LAKESH 0900   74     240/ 10/ 14 1010.2F
$$

TC  - TEMPERATURE IN CELSIUS
VSB - VISIBILITY IN STATUTE MILES
WCI - WIND CHILL INDEX
HX  - HEAT INDEX




USA.gov is the U.S. government's official web portal to all federal, state and local government web resources and services.